When you browse on this site, cookies collect data to enhance your experience and personalize the content and advertising you see.
Visit our Privacy Policy to learn more. By continuing to use the site, you agree to this use of cookies and data.
  • In France
  • List of Countries
  • For 7 days
  • Water Temperature
  • Weather Map
  • Weather Widgets
  • user-avatar
    Login

    Hourly Weather Córdoba

    Today, 21 February, Friday

    Time Temperature Precipitation Wind Pressure Humidity
    00:00 +18°C° 0 mm 1 mps 729 mmHg 37%
    01:00 +18°C° 0 mm 1 mps 729 mmHg 37%
    02:00 +16°C° 0 mm 1 mps 729 mmHg 34%
    09:00 +20°C° 0 mm 2 mps 731 mmHg 26%
    10:00 +23°C° 0 mm 2 mps 731 mmHg 23%
    11:00 +24°C° 0 mm 2 mps 731 mmHg 21%
    12:00 +25°C° 0 mm 2 mps 731 mmHg 21%
    13:00 +27°C° 0 mm 2 mps 730 mmHg 21%
    14:00 +28°C° 0 mm 2 mps 730 mmHg 20%
    15:00 +28°C° 0 mm 2 mps 730 mmHg 20%
    16:00 +28°C° 0 mm 2 mps 729 mmHg 21%
    17:00 +28°C° 0 mm 2 mps 729 mmHg 21%
    18:00 +26°C° 0 mm 2 mps 729 mmHg 24%
    19:00 +23°C° 0 mm 2 mps 729 mmHg 27%
    20:00 +20°C° 0 mm 2 mps 729 mmHg 30%
    21:00 +20°C° 0 mm 1 mps 729 mmHg 32%
    22:00 +19°C° 0 mm 1 mps 730 mmHg 34%
    23:00 +18°C° 0 mm 1 mps 730 mmHg 36%

    Tomorrow, 22 February, Saturday

    Time Temperature Precipitation Wind Pressure Humidity
    00:00 +16°C° 0 mm 1 mps 730 mmHg 37%
    01:00 +16°C° 0 mm 1 mps 730 mmHg 38%
    02:00 +14°C° 0 mm 0 mps 730 mmHg 39%
    03:00 +14°C° 0 mm 0 mps 729 mmHg 39%
    04:00 +14°C° 0 mm 0 mps 729 mmHg 40%
    05:00 +13°C° 0 mm 0 mps 729 mmHg 40%
    06:00 +15°C° 0 mm 0 mps 730 mmHg 37%
    07:00 +19°C° 0 mm 1 mps 730 mmHg 34%
    08:00 +21°C° 0 mm 1 mps 730 mmHg 31%
    09:00 +23°C° 0 mm 2 mps 730 mmHg 28%
    10:00 +25°C° 0 mm 2 mps 730 mmHg 26%
    11:00 +26°C° 0 mm 3 mps 730 mmHg 23%
    12:00 +27°C° 0 mm 3 mps 730 mmHg 22%
    13:00 +28°C° 0 mm 4 mps 729 mmHg 22%
    14:00 +29°C° 0 mm 4 mps 728 mmHg 21%
    15:00 +29°C° 0 mm 4 mps 727 mmHg 22%
    16:00 +29°C° 0 mm 4 mps 727 mmHg 23%
    17:00 +29°C° 0 mm 4 mps 726 mmHg 23%
    18:00 +26°C° 0 mm 4 mps 726 mmHg 26%
    19:00 +24°C° 0 mm 3 mps 726 mmHg 28%
    20:00 +20°C° 0 mm 3 mps 726 mmHg 31%
    21:00 +20°C° 0 mm 2 mps 726 mmHg 33%
    22:00 +19°C° 0 mm 2 mps 726 mmHg 35%
    23:00 +19°C° 0 mm 2 mps 727 mmHg 37%

    Day after tomorrow, 23 February, Sunday

    Time Temperature Precipitation Wind Pressure Humidity
    00:00 +18°C° 0 mm 2 mps 726 mmHg 38%
    01:00 +18°C° 0 mm 2 mps 726 mmHg 39%
    02:00 +18°C° 0 mm 2 mps 725 mmHg 40%
    03:00 +17°C° 0 mm 2 mps 725 mmHg 40%
    04:00 +17°C° 0 mm 2 mps 725 mmHg 40%
    05:00 +17°C° 0 mm 2 mps 725 mmHg 40%
    06:00 +19°C° 0 mm 3 mps 725 mmHg 38%
    07:00 +20°C° 0 mm 3 mps 726 mmHg 35%
    08:00 +22°C° 0 mm 3 mps 726 mmHg 33%
    09:00 +25°C° 0 mm 4 mps 726 mmHg 30%
    10:00 +27°C° 0 mm 5 mps 726 mmHg 26%
    11:00 +29°C° 0 mm 5 mps 726 mmHg 23%
    12:00 +30°C° 0 mm 5 mps 725 mmHg 22%
    13:00 +32°C° 0 mm 5 mps 725 mmHg 21%
    14:00 +33°C° 0 mm 5 mps 724 mmHg 20%
    15:00 +33°C° 0 mm 5 mps 723 mmHg 21%
    16:00 +32°C° 0 mm 6 mps 722 mmHg 22%
    17:00 +32°C° 0 mm 6 mps 722 mmHg 23%
    18:00 +28°C° 0 mm 5 mps 722 mmHg 27%
    19:00 +26°C° 0 mm 4 mps 722 mmHg 32%
    20:00 +22°C° 0 mm 3 mps 722 mmHg 36%
    21:00 +22°C° 0 mm 3 mps 722 mmHg 37%
    22:00 +21°C° 0 mm 3 mps 722 mmHg 39%
    23:00 +20°C° 0 mm 2 mps 722 mmHg 40%

    24 February, Monday

    Time Temperature Precipitation Wind Pressure Humidity
    00:00 +20°C° 0 mm 2 mps 722 mmHg 40%
    01:00 +20°C° 0 mm 2 mps 721 mmHg 41%
    02:00 +19°C° 0 mm 2 mps 721 mmHg 41%
    03:00 +19°C° 0 mm 2 mps 720 mmHg 42%
    04:00 +19°C° 0 mm 2 mps 720 mmHg 43%
    05:00 +18°C° 0 mm 2 mps 720 mmHg 44%
    06:00 +20°C° 0 mm 2 mps 720 mmHg 41%
    07:00 +23°C° 0 mm 2 mps 720 mmHg 38%
    08:00 +25°C° 0 mm 3 mps 720 mmHg 36%
    09:00 +28°C° 0 mm 3 mps 720 mmHg 33%
    10:00 +30°C° 0 mm 4 mps 720 mmHg 29%
    11:00 +34°C° 0 mm 5 mps 720 mmHg 26%
    12:00 +35°C° 0 mm 5 mps 720 mmHg 25%
    13:00 +36°C° 0 mm 5 mps 719 mmHg 23%
    14:00 +37°C° 0 mm 5 mps 719 mmHg 22%
    15:00 +38°C° 0 mm 6 mps 718 mmHg 23%
    16:00 +36°C° 0 mm 6 mps 717 mmHg 24%
    17:00 +36°C° 0 mm 6 mps 717 mmHg 25%
    18:00 +33°C° 0 mm 5 mps 717 mmHg 30%
    19:00 +29°C° 0 mm 4 mps 717 mmHg 35%
    20:00 +27°C° 0 mm 3 mps 717 mmHg 40%
    21:00 +26°C° 0 mm 3 mps 718 mmHg 41%
    22:00 +25°C° 0 mm 3 mps 718 mmHg 43%
    23:00 +25°C° 0 mm 2 mps 719 mmHg 45%

    25 February, Tuesday

    Time Temperature Precipitation Wind Pressure Humidity
    00:00 +24°C° 0 mm 2 mps 719 mmHg 46%
    01:00 +24°C° 0 mm 2 mps 719 mmHg 47%
    02:00 +23°C° 0 mm 1 mps 719 mmHg 48%
    03:00 +22°C° 0 mm 3 mps 719 mmHg 49%
    04:00 +22°C° 0 mm 4 mps 720 mmHg 49%
    05:00 +21°C° 0 mm 5 mps 720 mmHg 50%
    06:00 +22°C° 0 mm 6 mps 721 mmHg 43%
    07:00 +23°C° 0 mm 6 mps 721 mmHg 35%
    08:00 +23°C° 0 mm 6 mps 722 mmHg 28%
    09:00 +26°C° 0 mm 6 mps 722 mmHg 28%
    10:00 +27°C° 0 mm 6 mps 722 mmHg 28%
    11:00 +28°C° 0 mm 6 mps 722 mmHg 28%
    12:00 +27°C° 0.3 mm 6 mps 722 mmHg 38%
    13:00 +26°C° 0.3 mm 6 mps 722 mmHg 49%
    14:00 +24°C° 0.3 mm 6 mps 722 mmHg 59%
    15:00 +25°C° 0.4 mm 5 mps 722 mmHg 62%
    16:00 +23°C° 0.4 mm 4 mps 721 mmHg 64%
    17:00 +24°C° 0.4 mm 3 mps 721 mmHg 67%
    18:00 +22°C° 0.1 mm 3 mps 721 mmHg 71%
    19:00 +20°C° 0.1 mm 2 mps 721 mmHg 75%
    20:00 +19°C° 0.1 mm 2 mps 722 mmHg 80%
    21:00 +19°C° 0 mm 2 mps 722 mmHg 78%
    22:00 +19°C° 0 mm 2 mps 722 mmHg 77%
    23:00 +19°C° 0 mm 3 mps 723 mmHg 76%

    26 February, Wednesday

    Time Temperature Precipitation Wind Pressure Humidity
    00:00 +19°C° 0 mm 3 mps 722 mmHg 71%
    01:00 +19°C° 0 mm 3 mps 722 mmHg 67%
    02:00 +19°C° 0 mm 3 mps 722 mmHg 63%
    03:00 +19°C° 0 mm 2 mps 722 mmHg 58%
    04:00 +18°C° 0 mm 2 mps 722 mmHg 53%
    05:00 +18°C° 0 mm 2 mps 722 mmHg 48%
    06:00 +20°C° 0 mm 2 mps 722 mmHg 43%
    07:00 +23°C° 0 mm 1 mps 723 mmHg 38%
    08:00 +25°C° 0 mm 1 mps 723 mmHg 33%
    09:00 +28°C° 0 mm 1 mps 723 mmHg 28%
    10:00 +30°C° 0 mm 2 mps 723 mmHg 22%
    11:00 +34°C° 0 mm 2 mps 723 mmHg 17%
    12:00 +35°C° 0 mm 2 mps 723 mmHg 15%
    13:00 +36°C° 0 mm 2 mps 722 mmHg 14%
    14:00 +37°C° 0 mm 2 mps 722 mmHg 12%
    15:00 +37°C° 0 mm 2 mps 721 mmHg 12%
    16:00 +36°C° 0 mm 2 mps 721 mmHg 12%
    17:00 +36°C° 0 mm 2 mps 720 mmHg 11%
    18:00 +32°C° 0 mm 2 mps 720 mmHg 15%
    19:00 +29°C° 0 mm 2 mps 720 mmHg 18%
    20:00 +26°C° 0 mm 2 mps 720 mmHg 21%
    21:00 +25°C° 0 mm 2 mps 721 mmHg 22%
    22:00 +24°C° 0 mm 2 mps 721 mmHg 24%
    23:00 +24°C° 0 mm 2 mps 722 mmHg 25%
    Show more